• Processing (Info)

  • MPEC 2022-P27 : 2022 OA6

    The following Minor Planet Electronic Circular may be linked-to from your own Web pages, but must not otherwise be redistributed electronically.

    A form allowing access to any MPEC is at the bottom of this page.


    Read MPEC 2022-P26 Read MPEC 2022-P28


    M.P.E.C. 2022-P27                                Issued 2022 August 2, 18:07 UT
    
         The Minor Planet Electronic Circulars contain information on unusual
             minor planets and routine data on comets.  They are published
        on behalf of Division F of the International Astronomical Union by the
              Minor Planet Center, Smithsonian Astrophysical Observatory,
                              Cambridge, MA 02138, U.S.A.
    
                 Prepared using the Tamkin Foundation Computer Network
    
                                  MPC@CFA.HARVARD.EDU
                URL https://www.minorplanetcenter.net/    ISSN 1523-6714
    
                                    2022 OA6                                 
    
    
    Observations:
         K22O06A* C2022 07 25.53072923 27 52.262-21 08 08.75         21.31wUEP027F52
         K22O06A  C2022 07 25.54021423 27 53.177-21 08 34.81         21.70wUEP027F52
         K22O06A  C2022 07 25.54972223 27 54.065-21 09 00.96         21.64wUEP027F52
         K22O06A  C2022 07 25.55926023 27 54.969-21 09 27.08         21.30GVEP027F52
         K22O06A  C2022 07 25.61367923 28 00.121-21 11 55.67         21.50GVEP027F52
         K22O06A  C2022 07 25.61430923 28 00.185-21 11 57.29         21.53GVEP027F52
         K22O06A ^C2022 07 26.53436623 29 47.986-21 53 55.18         21.33GVEP027568
         K22O06A ^C2022 07 26.53534523 29 48.073-21 53 57.87         21.41GVEP027568
         K22O06A ^C2022 07 26.53632923 29 48.161-21 54 00.61         21.55GVEP027568
         K22O06A |C2022 08 01.38155 23 39 32.09 -26 17 32.6          20.9 GVEP027807
         K22O06A |C2022 08 01.38340 23 39 32.21 -26 17 38.4          20.7 GVEP027807
         K22O06A |C2022 08 01.38524 23 39 32.35 -26 17 42.9          20.8 GVEP027807
         K22O06A ^C2022 08 01.54529623 39 47.779-26 25 33.13         21.35GVEP027568
         K22O06A ^C2022 08 01.54627423 39 47.839-26 25 35.72         21.36GVEP027568
         K22O06A ^C2022 08 01.54725123 39 47.900-26 25 38.37         21.51GVEP027568
    
    Observer details:
    568 Mauna Kea.  Observers R. Wainscoat, A. Acohido, T. Burdullis, L. Wells, H.
        Flewelling.  Measurers R. Weryk, R. Wainscoat.  3.6-m Canada-France-Hawaii
        Telescope + CCD.
    807 Cerro Tololo Observatory, La Serena.  Observers T. Linder, R. Holmes, L.
        Horn.  1.00-m f/10.0 astrograph + CCD.
    F52 Pan-STARRS 2, Haleakala.  Observers J. Bulger, T. Lowe, A. Schultz, I.
        Smith, K. Chambers, T. Dukes.  Measurers K. Chambers, S. Chastel, T. de
        Boer, J. Fairlamb, H. Gao, M. Huber, C.-C. Lin, E. Magnier, Y.
        Ramanjooloo, R. Wainscoat, R. Weryk.  1.8-m Ritchey-Chretien + CCD.
    
    Orbital elements:
    2022 OA6                                                 Earth MOID = 0.1074 AU
    Epoch 2022 Aug. 9.0 TT = JDT 2459800.5                  MPC                     
    M  33.87909              (2000.0)            P               Q                  
    n   0.69457534     Peri.  166.05653     +0.14008632     +0.98090157             
    a   1.2627668      Node   111.85883     -0.92180184     +0.17895236             
    e   0.1115705      Incl.    8.35985     -0.36146535     -0.07621125             
    P   1.42           H   23.73          G   0.15           U   7                  
    Residuals in seconds of arc
    220725 F52  0.1+  0.0     220725 F52  0.2+  0.0     220801 807  0.2-  0.3-
    220725 F52  0.3+  0.1+    220726 568  0.0   0.0     220801 807  0.1+  0.0
    220725 F52  0.1+  0.2+    220726 568  0.0   0.0     220801 568  0.0   0.0
    220725 F52  0.1+  0.2+    220726 568  0.0   0.0     220801 568  0.0   0.0
    220725 F52  0.1+  0.1-    220801 807  0.1-  0.6+    220801 568  0.0   0.0
    
    Ephemeris:
    2022 OA6                 a,e,i = 1.26, 0.11, 8                   q = 1.1219
    Date    TT    R. A. (2000) Decl.     Delta      r    Elong.  Phase     V
    2022 07 03    22 30 04.9 -05 46 19   0.1758  1.1237   123.6    48.9    22.0
    ...
    2022 07 18    23 11 15.2 -15 29 36   0.1629  1.1311   131.6    42.2    21.7
    ...
    2022 07 26    23 28 46.0 -21 28 55   0.1615  1.1373   135.9    38.4    21.6
    ...
    2022 08 01    23 38 59.9 -26 00 37   0.1632  1.1429   138.8    35.8    21.5
    2022 08 02    23 40 26.0 -26 45 00   0.1637  1.1439   139.2    35.4    21.5
    2022 08 03    23 41 47.4 -27 28 58   0.1643  1.1449   139.6    35.0    21.5
    ...
    2022 08 09    23 48 13.6 -31 40 29   0.1691  1.1514   141.7    33.1    21.6
    ...
    2022 08 17    23 52 11.8 -36 30 04   0.1791  1.1612   143.4    31.3    21.7
    ...
    2022 09 01    23 46 46.5 -42 18 46   0.2079  1.1821   143.1    30.9    22.0
    
    M. P. C. Staff               (C) Copyright 2022 MPC           M.P.E.C. 2022-P27
    


    Read MPEC 2022-P26 Read MPEC 2022-P28


    MPEC number:

    Enter an MPEC number in one of the following forms:

    • 1997-B01 (the full form)
    • J97B01 (the packed version of the full form)
    • B01 (the abbreviated form)